Showing default

NIMBUS 4, 4362

Orbit data source: Space-Track

NIMBUS 4, 4362 is a payload satellite owned by GSFC (US) in SSO that was launched on Wed, 08 Apr 1970 UTC via a THORAD SLV-2G AGENA D launch vehicle from the Air Force Western Test Range (AFWTR). Payload-class satellites include a variety of spacecraft equipped with specific instruments for various scientific and technological missions. These include communications satellites like Starlink; space stations such as the ISS; scientific satellites like the Hubble; Earth observation satellites from companies like Planet Labs, Umbra, and HawkEye 360; GPS; miniature CubeSats for education and research; and military/defense satellites.

Loading next visibility...
Identifier
4362, 1970-025A
Orbit
SSO
Country
Flag of USUS
Related business
Manufacturer
GE/MSVD
Mission
Non-operational spacecraft
Bus & Motor
NIMBUS, Unknown motor
Mass
619 kg wet, 619 kg dry
Launch date (UTC)
1970-04-08 (56 years ago)
Launch vehicle
THORAD SLV-2G AGENA D
Launch site
Air Force Western Test Range (AFWTR)
Object type
Payload
Rocket body
Debris
Shape & HBR
Unknown
Radar Cross Section
Large (>1 m²)

Expand to show TLE details & history
Last TLE update: 23 hours ago

TLE from 23 hours ago
0 NIMBUS 4
1 04362U 70025A   25293.81612644  .00000001  00000-0  78500-4 0  9997
2 04362  99.9525 212.2526 0006953 217.3467 211.2263 13.44738671724676
Epoch: 2025-10-20T19:35Z
TLE epoch observation values (Epoch: 2025-10-20T19:35:13.324Z)
Latitude
66.52°
Longitude
-134.7615°
Altitude
1,107.534 km
Speed
7.303 km/s
True Right ascension
12h 34m 13s
True Declination
66° 23' 60"
Sunlit
Object was in daylight at epoch
Visualization orbit readout
Latitude
Unknown
Longitude
Unknown
Altitude
Unknown
Speed
Unknown
Apparent Right ascension
Unknown
Apparent Declination
Unknown
Sunlit
N/A
Visualization observer readout
Local Sidereal Time
13:44:22
Azimuth
Unknown
Elevation
Unknown
Doppler factor
Unknown
Orbital elements
Apogee altitude
1,094.193 km
Perigee altitude
1,083.809 km
Semi-major axis
7,467.138 km
Eccentricity
0.0007
Inclination
99.9525°
RAAN
212.2526°
Arg. of periapsis
217.3467°
True anomaly
211.18503°
Mean anomaly
211.2263°
Eccentric anomaly
211.20566°
Mean motion
3.36366 °/min
Orbital period
107.03 mins
BSTAR
0.0000785

Documentation

Showing up to 5 results
|